Location: Newark
(42.8481°N, 0.4872°E)
Time: 00:15:15
(UTC+00:00)

Transit 2A - Pass Details

Date: 30 October 2020
Orbit: 595 x 963 km, 66.7° (Epoch: 03 December)

Event Time Altitude Azimuth Distance (km) Brightness Sun altitude
Rises 10:55:04 0° 312° (NW) 3,353 8.9 32.1°
Reaches altitude 10° 10:58:43 10° 289° (WNW) 2,329 8.3 32.3°
Maximum altitude 11:01:26 14° 258° (WSW) 1,981 8.3 32.4°
Drops below altitude 10° 11:04:01 10° 227° (SW) 2,193 8.9 32.5°
Sets 11:07:17 0° 202° (SSW) 3,028 9.9 32.6°
